EHI
3 5 9 14 17 16 14 14 16 17 16 15 16 17 16 14 14 13 9 7 8 7 7 6 5 5 6 6 5 4 5 7 8 7 6 5 5 4 5 4 1 0 0
3 4 8 14 17 16 14 13 14 15 14 14 15 15 14 13 13 11 7 5 5 6 7 6 5 5 7 9 9 9 8 8 9 7 4 3 3 4 4 3 1 0 0
3 3 7 14 17 16 14 11 11 12 12 12 12 11 10 10 10 8 5 3 3 4 6 6 5 6 8 11 13 13 12 10 9 6 3 1 2 4 5 4 2 0 0
4 3 6 14 17 16 13 10 9 9 10 10 10 9 8 8 8 6 5 4 3 2 4 5 6 6 8 10 12 12 11 8 6 4 1 0 1 3 5 5 2 0 0
4 3 6 14 17 15 12 11 11 9 8 8 9 9 8 7 7 6 5 5 4 3 3 5 6 6 8 10 10 9 7 5 2 1 0 0 0 2 3 4 2 0 0
4 3 7 15 18 14 12 12 12 10 8 7 8 8 9 9 9 7 6 6 6 5 5 5 6 6 8 9 8 6 4 3 1 0 0 0 1 2 3 3 1 0 0
5 5 8 15 16 13 11 11 10 8 7 6 6 7 9 11 11 8 7 7 8 7 6 6 6 6 7 8 7 5 3 1 0 0 0 0 2 4 4 2 1 0 1
7 6 8 12 12 11 11 10 8 7 6 6 6 7 7 9 9 8 8 9 9 8 8 7 7 6 6 6 6 6 5 2 1 0 0 1 4 8 8 5 3 1 2
7 6 6 6 6 8 10 10 7 6 5 6 7 7 6 6 6 8 9 10 10 10 10 9 7 6 5 4 4 5 6 5 3 1 0 3 9 13 13 10 6 4 4
6 5 3 2 2 4 6 8 8 7 5 5 6 6 6 4 4 6 8 8 9 10 10 9 7 5 5 4 4 4 4 5 3 1 1 5 12 17 17 14 10 7 7
6 5 3 2 1 1 2 4 5 6 5 3 3 4 4 2 2 2 4 7 9 8 8 7 6 6 5 4 3 3 2 2 1 1 1 6 12 17 17 16 12 10 9
6 6 6 5 3 1 0 1 2 2 2 1 1 1 1 0 0 0 2 6 8 6 4 4 4 5 4 2 2 2 1 0 0 0 2 7 13 16 17 16 13 11 11
7 7 6 5 4 1 0 0 0 0 0 0 0 0 0 0 0 0 2 4 4 3 2 2 2 2 2 1 0 0 0 0 0 0 2 8 13 16 16 15 13 12 11
6 5 4 3 2 1 0 0 0 0 0 1 1 0 0 0 0 0 1 1 1 1 1 1 1 0 0 0 0 0 0 0 0 0 2 8 14 17 16 15 13 11 9
5 4 2 1 0 0 0 0 0 0 1 2 2 1 1 1 1 0 0 0 0 0 1 1 0 0 0 0 0 0 0 0 0 0 1 7 14 18 18 17 15 12 11
3 2 1 0 0 0 0 0 0 0 1 2 2 2 2 2 2 1 0 0 0 0 1 0 0 0 0 0 0 0 0 0 0 0 1 4 10 17 19 18 17 16 15
2 2 1 1 0 0 0 0 0 0 1 1 1 2 2 2 2 1 0 0 0 0 0 0 0 0 0 0 0 0 0 0 0 0 0 1 4 11 17 18 18 17 17
2 2 2 2 1 0 0 0 0 0 0 0 0 1 1 1 1 0 0 0 0 0 0 0 0 0 0 0 0 0 0 0 1 1 0 0 1 5 9 13 16 16 16
3 3 3 3 2 1 1 1 1 1 0 0 0 1 1 1 1 1 1 1 1 0 0 0 0 0 0 0 0 0 0 0 1 1 1 1 1 1 3 6 11 13 14
4 3 2 2 2 1 2 2 2 2 1 0 0 1 2 2 2 2 2 2 1 1 0 0 0 0 0 0 0 0 0 0 0 0 1 1 1 0 0 2 4 7 9
5 3 1 1 2 3 3 3 3 2 1 0 0 1 1 2 2 2 1 1 1 1 1 1 0 0 0 0 0 0 0 0 0 0 0 1 1 0 0 0 1 2 4
5 3 3 3 4 5 5 5 4 2 1 1 0 1 2 2 2 2 1 0 0 0 1 1 1 0 0 0 0 0 0 0 0 0 0 0 0 0 0 0 1 1 2
7 5 4 6 8 8 8 9 8 6 4 2 0 1 2 2 2 2 1 0 0 0 0 1 1 1 1 0 0 0 0 0 0 0 0 0 0 0 0 0 1 2 3
9 7 6 8 10 10 10 12 12 10 7 3 0 0 1 1 1 1 0 0 1 0 0 1 2 1 1 1 0 0 0 0 0 0 0 0 0 0 0 0 1 1 2
12 11 11 11 11 11 11 12 12 10 7 3 1 1 0 0 0 1 0 0 0 0 0 1 2 2 1 1 0 0 0 0 0 0 0 0 0 0 0 0 0 0 1
15 14 14 14 13 12 11 11 11 9 6 4 2 2 1 0 0 1 0 0 0 0 1 2 3 3 2 1 0 0 0 0 0 0 0 0 0 0 0 0 0 0 0
Wind_Speed
3 5 12 13 14 14 14 14 13 14 14 14 14 14 14 15 15 15 15 15 14 14 13 12 12 11 11 12 12 12 12 11 11 11 11 10 10 10 11 11 11 8 11
6 7 12 13 14 14 14 14 13 13 13 14 14 14 14 14 14 14 14 14 13 13 12 12 11 11 11 11 11 11 11 10 10 10 10 9 9 9 9 10 10 7 11
9 7 10 13 14 14 14 13 13 13 13 13 13 13 13 13 13 13 13 13 12 12 11 11 11 10 10 10 10 9 9 9 9 9 8 4 5 7 8 10 10 10 10
9 7 9 13 13 13 13 13 12 12 12 12 13 13 12 12 12 12 12 12 11 11 10 10 9 9 9 9 8 8 8 8 7 7 4 2 3 7 8 9 10 10 10
8 7 9 14 13 13 12 12 12 12 12 12 12 12 12 11 11 11 11 11 10 10 10 9 8 8 7 7 7 6 6 6 6 5 3 2 2 6 8 9 10 10 9
7 6 9 13 13 12 12 11 11 11 11 11 11 11 11 11 11 11 11 10 10 10 9 8 7 7 7 6 6 6 5 6 5 3 3 3 3 6 8 9 9 9 9
7 5 8 12 12 11 11 11 10 10 10 10 10 10 10 10 10 10 10 10 10 9 9 8 7 6 6 5 5 5 5 5 3 3 4 4 4 8 8 8 8 8 9
9 6 6 11 11 10 10 10 10 9 9 9 9 9 9 9 9 9 9 9 9 9 8 8 7 6 6 5 5 4 4 4 3 3 4 4 7 9 9 9 9 9 9
8 6 4 4 6 8 9 9 9 8 8 8 8 8 9 9 9 9 8 8 8 8 8 7 7 7 6 6 5 4 4 4 2 2 4 4 8 10 10 10 9 9 9
7 6 5 4 3 3 4 7 8 8 7 7 7 7 7 8 8 8 7 8 8 7 7 7 7 7 7 6 6 5 5 4 2 2 2 4 9 11 11 11 10 9 10
6 4 4 4 3 2 3 5 5 6 6 6 5 7 6 3 3 4 6 8 8 7 7 7 7 7 7 7 7 7 5 2 2 2 2 6 9 11 11 11 11 10 10
6 5 3 4 3 3 3 2 1 2 2 2 2 3 2 2 2 4 6 8 8 7 7 7 7 8 6 3 5 6 2 3 2 3 4 8 10 11 12 12 11 11 11
6 6 4 4 3 3 2 2 1 1 1 1 2 2 2 2 2 2 2 4 4 5 4 4 4 3 3 3 3 3 3 3 2 3 4 10 11 12 12 12 12 12 11
6 5 4 3 3 2 2 2 2 1 1 1 2 2 2 1 2 2 2 2 2 2 2 2 2 3 3 4 4 4 4 3 3 3 4 10 11 12 12 12 12 12 12
5 5 4 4 3 3 2 2 2 2 2 2 2 2 3 2 2 2 2 2 2 2 3 3 3 3 3 3 4 4 4 4 4 4 3 10 11 11 12 12 12 12 12
5 4 3 4 3 3 2 2 2 2 1 1 1 2 2 2 2 2 2 2 2 2 2 3 3 3 3 3 3 3 3 4 4 4 3 5 10 11 11 11 11 12 12
4 4 3 4 3 3 2 2 1 1 1 1 1 1 2 2 2 2 2 1 2 2 2 2 2 2 2 2 2 3 3 3 4 4 4 3 4 8 10 10 10 10 11
4 4 3 3 3 2 1 1 1 1 2 1 1 1 1 2 2 2 1 1 1 1 1 2 2 1 1 1 1 2 2 2 3 4 3 3 3 3 6 9 9 9 10
4 4 3 2 2 1 1 1 1 1 1 1 1 1 1 1 2 2 1 1 1 1 1 2 2 2 2 1 1 1 1 1 2 3 3 3 3 3 3 6 8 9 9
4 3 3 2 1 1 1 1 1 1 0 0 1 1 1 1 1 1 1 1 1 1 1 1 1 1 1 1 1 0 0 0 1 1 2 3 2 3 3 3 3 5 9
4 3 2 2 0 1 1 1 1 0 0 0 1 1 1 1 1 1 1 1 1 1 1 1 1 1 1 1 2 1 2 1 0 1 1 2 2 3 3 3 3 2 3
4 3 2 2 1 1 1 1 1 1 0 0 0 0 0 1 1 1 1 1 1 1 1 1 1 1 1 1 2 1 1 2 2 1 1 2 2 2 3 3 3 3 2
4 3 3 2 1 1 0 0 1 1 2 2 2 1 1 0 1 0 1 1 1 2 1 1 1 2 1 1 2 2 2 2 1 2 1 1 1 1 2 2 3 3 4
4 4 3 2 1 1 1 2 2 2 1 0 0 0 1 1 1 1 1 1 1 1 1 1 1 1 2 1 1 1 2 2 2 1 2 1 0 1 2 2 3 4 4
4 4 3 2 1 1 1 2 2 1 1 1 1 2 2 2 2 1 1 1 1 1 1 0 1 1 1 1 1 1 1 0 1 2 1 1 1 1 2 2 2 2 3
2 3 3 2 1 1 1 2 2 2 2 2 1 1 1 1 2 2 2 1 1 0 1 1 1 1 1 1 1 1 1 1 2 2 2 1 1 2 1 1 1 2 2
Wind_Direction
157 155 133 128 123 121 117 114 112 111 111 114 114 115 116 119 122 125 129 133 135 135 135 135 133 130 128 129 127 126 127 127 127 124 123 122 120 121 124 125 123 121 122
154 144 132 129 124 122 121 118 116 115 114 117 118 119 120 123 125 129 132 134 136 138 138 137 135 134 134 133 130 128 130 132 131 129 127 124 124 126 131 131 129 129 130
134 138 135 130 126 125 123 121 120 120 119 121 122 122 123 127 130 133 134 135 138 139 141 140 139 139 139 135 133 132 133 134 135 134 131 122 123 131 139 139 136 131 130
133 137 137 132 129 127 125 124 123 124 124 127 128 128 129 131 134 137 137 138 140 142 143 143 143 142 142 140 138 139 140 143 141 142 135 136 136 137 142 143 142 140 137
129 134 138 133 130 129 127 127 127 128 128 130 133 134 135 136 138 141 141 143 145 147 149 149 147 145 148 148 146 148 147 149 149 147 137 139 141 148 146 146 146 145 145
125 128 135 133 132 131 130 130 131 133 132 134 137 139 141 142 143 145 148 150 153 154 155 155 153 151 154 155 156 158 154 154 157 153 150 155 165 161 155 153 153 152 152
128 130 136 135 136 135 134 134 134 137 137 141 142 143 146 147 148 152 155 156 158 160 163 164 164 162 164 165 164 164 165 170 164 164 169 173 177 170 165 162 160 160 160
132 133 137 137 135 137 138 138 140 140 140 142 145 148 151 155 157 161 164 164 169 172 172 174 175 177 181 180 180 179 182 189 165 171 181 181 179 178 176 175 171 169 168
122 123 121 131 136 142 145 144 143 144 145 146 148 154 161 164 167 170 173 175 180 182 182 181 185 191 194 194 196 200 203 198 169 173 189 188 183 184 184 182 181 178 174
119 120 121 119 119 139 151 149 149 147 149 151 154 161 167 172 176 181 184 187 189 191 194 198 199 203 208 210 211 215 217 212 181 185 195 196 192 189 188 187 185 182 180
120 126 133 136 133 131 143 162 160 157 159 163 167 172 173 175 178 184 194 197 199 203 206 209 210 212 214 217 222 223 227 196 175 191 197 204 199 197 195 191 189 188 185
142 147 144 143 149 150 151 142 164 166 162 170 167 177 173 173 189 201 207 208 211 212 218 221 221 222 220 213 225 232 216 196 194 203 209 209 204 202 199 195 193 193 192
154 152 156 156 155 152 148 146 162 177 167 173 179 178 178 185 197 211 213 214 215 219 226 229 230 225 213 203 211 211 210 204 200 211 211 208 206 204 202 201 198 197 195
143 152 156 153 145 152 153 166 176 183 174 180 195 188 177 181 193 201 208 212 215 219 217 218 211 212 209 212 212 213 210 202 203 205 210 208 208 208 206 205 204 201 198
142 146 144 141 141 145 144 169 163 187 181 189 197 193 178 177 192 196 202 207 215 218 215 207 202 204 208 212 211 208 212 210 211 205 211 210 210 210 209 209 207 204 201
144 151 150 146 148 141 144 158 171 175 164 159 178 186 180 170 174 177 191 206 220 216 212 202 199 197 202 200 213 213 213 211 210 201 208 215 214 209 208 208 204 202 200
147 147 155 151 141 140 150 164 151 163 153 159 174 182 172 172 176 172 186 209 229 219 201 185 187 179 187 199 214 223 217 211 200 193 200 206 207 210 207 206 205 205 206
137 134 147 140 134 146 146 148 143 145 146 168 166 168 168 177 177 158 180 214 223 195 183 177 164 158 173 190 214 232 215 206 199 192 198 196 192 201 202 201 202 204 212
137 133 133 127 143 160 147 117 114 126 146 170 159 166 172 169 166 158 181 203 183 161 177 182 149 151 166 193 216 226 207 196 195 192 189 189 184 184 193 200 202 206 214
128 126 117 111 135 155 115 63 55 64 68 111 179 194 182 182 161 146 164 191 156 140 146 145 148 157 170 183 196 278 282 249 168 183 196 187 185 188 191 199 202 212 212
123 123 119 110 94 117 121 127 122 77 340 359 217 191 187 188 170 139 143 127 131 149 175 158 144 164 161 115 90 22 348 357 358 229 212 182 185 189 185 191 195 204 212
150 153 150 154 141 153 201 198 180 176 200 164 341 328 170 166 161 138 141 148 148 140 126 143 140 137 173 136 127 113 10 344 336 311 203 177 186 186 189 198 195 201 211
162 172 170 178 182 209 224 66 52 51 34 26 12 350 332 118 150 130 143 147 156 158 184 208 170 155 174 197 151 149 157 217 284 327 313 183 175 184 210 202 197 208 206
178 177 173 181 184 194 139 111 115 122 130 241 258 356 357 10 54 90 118 125 150 151 174 208 166 167 154 200 234 203 175 162 161 272 320 320 123 188 218 217 209 206 201
168 164 167 157 156 130 118 132 125 116 128 84 61 54 27 9 19 46 75 82 93 127 152 184 154 155 155 174 196 197 164 91 131 150 250 296 322 265 225 220 206 201 201
152 158 148 133 146 142 127 131 135 135 123 97 74 59 21 5 8 13 38 42 46 115 170 196 175 177 189 167 154 152 163 166 180 161 190 237 261 273 260 235 209 208 209